Location: *
(45.1961°N, 1.9694°E)
Time: 01:28:38
(UTC+00:00)

Cosmos 2082 Rocket - Pass Details

Date: 25 August 2019
Orbit: 832 x 855 km, 71.0° (Epoch: 23 October)

Event Time Altitude Azimuth Distance (km) Brightness Sun altitude
Rises 19:25:54 0° 159° (SSE) 3,369 4.9 -8.0°
Reaches altitude 10° 19:29:02 10° 141° (SE) 2,444 4.1 -8.5°
Maximum altitude 19:32:46 19° 99° (E) 1,921 3.5 -9.1°
Drops below altitude 10° 19:36:32 10° 57° (ENE) 2,466 4.3 -9.7°
Sets 19:39:41 0° 40° (NE) 3,411 5.2 -10.2°
